Location: ČR
(50.0000°N, 15.0000°E)
Time: 20:20:50
(UTC+00:00)

Vanguard 3 - Pass Details

Date: 30 October 2021
Orbit: 508 x 3260 km, 33.4° (Epoch: 04 December)

Event Time Altitude Azimuth Distance (km) Brightness Sun altitude
Rises 14:59:19 0° 221° (SW) 2,833 11.5 5.1°
Reaches altitude 10° 15:02:27 10° 192° (SSW) 2,184 10.1 4.7°
Maximum altitude 15:04:54 14° 163° (SSE) 2,182 9.5 4.3°
Drops below altitude 10° 15:07:51 10° 135° (SE) 2,749 9.7 3.9°
Sets 15:12:50 0° 112° (ESE) 4,301 10.5 3.2°
